Date String (YYYY-MM-DD hh:mm:ss) UTC,Instrument flags,absolute air pressure of the measurement (hPa),sample flow rate (lpm),inlet stack bypass flow (lpm),air temperature of the measurement (°C),ambient temperature measured by the external sensor (°C),aerosol sample conditioner tube jacket temperature (°C),OPC LED temperature (°C),internal box temperature (°C),relative humidity of the measurement (%),span deviation,mass concentration of particles derived from Lorenz-Mie calculation of OPC scattering (μg/m³),mass concentration of particles derived from Lorenz-Mie calculation of OPC scattering (μg/m³),mass concentration of particles derived from Lorenz-Mie calculation of OPC scattering (μg/m³)
DateTimeUTC,F1_M11,P_M11,Q1_M11,Q2_M11,T1_M11,T2_M11,T3_M11,T4_M11,T5_M11,U1_M11,ZSPAN_M11,X2_M11,X0_M11,X1_M11
2023-09-03 19:00:00,SystemResetWarning,0831.1,5.01,000.00,027.7,026.4,000.0,035.9,029.5,30.3,0000.0,0003.14,0007.03,0002.56
2023-09-03 19:01:00,SystemResetWarning,0831.1,4.99,000.00,027.7,025.9,000.0,035.9,029.3,29.6,0000.0,0003.15,0007.09,0002.59
2023-09-03 19:02:00,SystemResetWarning,0831.1,5.00,000.00,027.6,024.5,000.0,035.8,028.8,29.8,0000.0,0003.17,0007.20,0002.62
2023-09-03 19:03:00,SystemResetWarning,0831.0,5.02,000.00,027.5,024.2,000.0,035.7,028.7,30.0,0000.0,0003.23,0006.64,0002.68
2023-09-03 19:04:00,SystemResetWarning,0831.0,5.00,000.00,027.5,024.4,000.0,035.7,028.7,30.5,0000.0,0003.24,0007.01,0002.73
2023-09-03 19:05:00,SystemResetWarning,0831.0,5.00,000.00,027.4,024.8,000.0,035.7,028.8,30.5,0000.0,0003.26,0007.54,0002.76
2023-09-03 19:06:00,SystemResetWarning,0830.9,5.01,000.00,027.5,025.2,000.0,035.8,029.0,30.7,0000.0,0003.29,0008.30,0002.80
2023-09-03 19:07:00,SystemResetWarning,0830.9,5.00,000.00,027.5,025.7,000.0,035.8,029.2,30.6,0000.0,0003.31,0008.48,0002.84
2023-09-03 19:08:00,SystemResetWarning,0830.9,5.00,000.00,027.6,026.0,000.0,035.8,029.3,30.3,0000.0,0003.33,0008.48,0002.89
2023-09-03 19:09:00,SystemResetWarning,0830.9,5.00,000.00,027.6,026.3,000.0,035.9,029.4,30.2,0000.0,0003.34,0008.30,0002.94
2023-09-03 19:10:00,SystemResetWarning,0830.9,5.00,000.00,027.7,026.5,000.0,035.9,029.5,29.9,0000.0,0003.36,0008.35,0002.97
2023-09-03 19:11:00,SystemResetWarning,0830.9,4.98,000.00,027.7,025.4,000.0,035.8,029.1,29.8,0000.0,0003.40,0007.68,0003.02
2023-09-03 19:12:00,SystemResetWarning,0830.9,5.01,000.00,027.6,024.2,000.0,035.8,028.8,30.3,0000.0,0003.43,0007.74,0003.05
2023-09-03 19:13:00,SystemResetWarning,0830.8,5.00,000.00,027.5,024.2,000.0,035.7,028.8,30.4,0000.0,0003.46,0007.90,0003.09
2023-09-03 19:14:00,SystemResetWarning,0830.9,5.01,000.00,027.4,024.5,000.0,035.7,028.8,30.8,0000.0,0003.49,0007.98,0003.11
2023-09-03 19:15:00,SystemResetWarning,0830.8,5.00,000.00,027.5,025.0,000.0,035.7,028.9,31.5,0000.0,0003.50,0007.96,0003.11
2023-09-03 19:16:00,SystemResetWarning,0830.8,5.00,000.00,027.5,025.4,000.0,035.8,029.1,32.0,0000.0,0003.53,0007.68,0003.12
2023-09-03 19:17:00,SystemResetWarning,0830.7,5.00,000.00,027.5,025.8,000.0,035.8,029.2,32.4,0000.0,0003.57,0007.33,0003.12
2023-09-03 19:18:00,SystemResetWarning,0830.7,5.00,000.00,027.6,026.2,000.0,035.8,029.4,32.3,0000.0,0003.55,0007.00,0003.12
2023-09-03 19:19:00,SystemResetWarning,0830.7,5.00,000.00,027.7,026.3,000.0,035.9,029.4,32.0,0000.0,0003.56,0007.28,0003.12
2023-09-03 19:20:00,SystemResetWarning,0830.7,4.98,000.00,027.6,025.3,000.0,035.8,029.0,31.7,0000.0,0003.57,0007.31,0003.12
2023-09-03 19:21:00,SystemResetWarning,0830.7,5.01,000.00,027.5,024.1,000.0,035.7,028.7,31.7,0000.0,0003.59,0007.78,0003.12
2023-09-03 19:22:00,SystemResetWarning,0830.7,5.01,000.00,027.4,024.1,000.0,035.7,028.7,31.9,0000.0,0003.59,0008.07,0003.12
2023-09-03 19:23:00,SystemResetWarning,0830.7,5.00,000.00,027.4,024.4,000.0,035.7,028.7,32.0,0000.0,0003.57,0008.32,0003.12
2023-09-03 19:24:00,SystemResetWarning,0830.7,5.00,000.00,027.4,024.8,000.0,035.7,028.9,32.9,0000.0,0003.55,0008.76,0003.11
2023-09-03 19:25:00,SystemResetWarning,0830.7,5.00,000.00,027.4,025.3,000.0,035.7,029.0,32.6,0000.0,0003.53,0009.24,0003.10
2023-09-03 19:26:00,SystemResetWarning,0830.7,5.00,000.00,027.5,025.7,000.0,035.8,029.2,32.2,0000.0,0003.50,0009.70,0003.11
2023-09-03 19:27:00,SystemResetWarning,0830.7,5.00,000.00,027.5,026.0,000.0,035.8,029.3,31.8,0000.0,0003.48,0009.53,0003.11
2023-09-03 19:28:00,SystemResetWarning,0830.8,4.99,000.00,027.6,026.3,000.0,035.8,029.4,31.9,0000.0,0003.45,0009.58,0003.10
2023-09-03 19:29:00,SystemResetWarning,0830.8,4.98,000.00,027.7,026.1,000.0,035.8,029.4,32.1,0000.0,0003.48,0009.76,0003.10
2023-09-03 19:30:00,SystemResetWarning,0830.7,5.01,000.00,027.6,024.8,000.0,035.8,028.8,31.8,0000.0,0003.48,0009.61,0003.11
2023-09-03 19:31:00,SystemResetWarning,0830.7,5.01,000.00,027.5,024.1,000.0,035.7,028.7,31.9,0000.0,0003.46,0009.76,0003.10
2023-09-03 19:32:00,SystemResetWarning,0830.7,5.01,000.00,027.4,024.2,000.0,035.7,028.7,32.4,0000.0,0003.44,0009.44,0003.08
2023-09-03 19:33:00,SystemResetWarning,0830.8,5.00,000.00,027.4,024.6,000.0,035.7,028.8,32.4,0000.0,0003.43,0009.11,0003.08
2023-09-03 19:34:00,SystemResetWarning,0830.8,5.00,000.00,027.4,025.0,000.0,035.7,028.9,32.0,0000.0,0003.44,0008.78,0003.07
2023-09-03 19:35:00,SystemResetWarning,0830.8,5.00,000.00,027.4,025.4,000.0,035.7,029.1,31.3,0000.0,0003.42,0008.16,0003.06
2023-09-03 19:36:00,SystemResetWarning,0830.8,5.00,000.00,027.5,025.8,000.0,035.8,029.2,31.0,0000.0,0003.44,0007.66,0003.07
2023-09-03 19:37:00,SystemResetWarning,0830.8,5.00,000.00,027.6,026.2,000.0,035.8,029.4,30.9,0000.0,0003.47,0007.07,0003.06
2023-09-03 19:38:00,SystemResetWarning,0830.8,5.00,000.00,027.6,026.4,000.0,035.8,029.4,30.8,0000.0,0003.47,0007.10,0003.05
2023-09-03 19:39:00,SystemResetWarning,0830.8,4.98,000.00,027.6,025.7,000.0,035.8,029.2,30.6,0000.0,0003.49,0007.15,0003.06
2023-09-03 19:40:00,SystemResetWarning,0830.7,5.00,000.00,027.5,024.5,000.0,035.7,028.8,31.1,0000.0,0003.48,0007.39,0003.06
2023-09-03 19:41:00,SystemResetWarning,0830.7,5.00,000.00,027.4,024.2,000.0,035.7,028.7,30.9,0000.0,0003.48,0008.01,0003.05
2023-09-03 19:42:00,SystemResetWarning,0830.7,5.01,000.00,027.4,024.4,000.0,035.7,028.7,31.2,0000.0,0003.52,0007.91,0003.07
2023-09-03 19:43:00,SystemResetWarning,0830.7,5.00,000.00,027.4,024.8,000.0,035.7,028.8,30.9,0000.0,0003.55,0007.86,0003.09
2023-09-03 19:44:00,SystemResetWarning,0830.7,5.00,000.00,027.4,025.2,000.0,035.7,029.0,30.9,0000.0,0003.55,0007.87,0003.09
2023-09-03 19:45:00,SystemResetWarning,0830.7,5.00,000.00,027.5,025.7,000.0,035.8,029.2,31.1,0000.0,0003.55,0008.48,0003.10
2023-09-03 19:46:00,SystemResetWarning,0830.7,5.00,000.00,027.5,026.0,000.0,035.8,029.3,31.2,0000.0,0003.60,0009.31,0003.11
2023-09-03 19:47:00,SystemResetWarning,0830.7,4.99,000.00,027.6,026.3,000.0,035.8,029.4,30.8,0000.0,0003.60,0009.34,0003.12
2023-09-03 19:48:00,SystemResetWarning,0830.7,5.00,000.00,027.7,026.6,000.0,035.9,029.5,30.2,0000.0,0003.60,0009.77,0003.13
2023-09-03 19:49:00,SystemResetWarning,0830.7,4.98,000.00,027.7,026.1,000.0,035.8,029.3,30.0,0000.0,0003.62,0009.80,0003.14
2023-09-03 19:50:00,SystemResetWarning,0830.7,5.00,000.00,027.6,024.8,000.0,035.8,028.9,30.5,0000.0,0003.61,0009.68,0003.14
2023-09-03 19:51:00,SystemResetWarning,0830.8,5.01,000.00,027.5,024.3,000.0,035.7,028.8,30.7,0000.0,0003.62,0009.24,0003.14
2023-09-03 19:52:00,SystemResetWarning,0830.7,5.01,000.00,027.4,024.5,000.0,035.7,028.8,30.3,0000.0,0003.64,0008.67,0003.15
2023-09-03 19:53:00,SystemResetWarning,0830.7,5.01,000.00,027.4,024.9,000.0,035.8,028.9,30.7,0000.0,0003.64,0009.56,0003.16
2023-09-03 19:54:00,SystemResetWarning,0830.7,5.00,000.00,027.5,025.3,000.0,035.8,029.1,30.9,0000.0,0003.63,0009.89,0003.15
2023-09-03 19:55:00,SystemResetWarning,0830.7,5.00,000.00,027.5,025.7,000.0,035.8,029.2,30.4,0000.0,0003.66,0010.35,0003.16
2023-09-03 19:56:00,SystemResetWarning,0830.7,5.00,000.00,027.6,026.1,000.0,035.8,029.3,30.0,0000.0,0003.69,0010.96,0003.17
2023-09-03 19:57:00,SystemResetWarning,0830.7,4.99,000.00,027.6,026.4,000.0,035.9,029.4,29.6,0000.0,0003.68,0010.19,0003.17
2023-09-03 19:58:00,SystemResetWarning,0830.7,5.00,000.00,027.7,026.5,000.0,035.9,029.5,29.7,0000.0,0003.67,0010.21,0003.17
2023-09-03 19:59:00,SystemResetWarning,0830.6,4.99,000.00,027.7,025.4,000.0,035.8,029.1,29.4,0000.0,0003.64,0010.60,0003.17
